Back to catalog

STARLINK-33914

AliveCommunicationsVLEO
NORAD 63774·PAYLOAD·🇺🇸 United States

Launched Apr 29, 2025 from Cape Canaveral Space Force Station

Loading…

Next Passes (next 24 hours)

TLE

FreshSource: CelesTrak SupGP

Epoch: Sep 14, 2026, 22:20 UTC

1 63774C 25089Y   26257.93104167  .00057808  00000+0  20939-2 0  2573
2 63774  43.0007  52.5678 0001558 275.3222 117.9290 15.27547336    11

Track STARLINK-33914 in real time with AllMySat

Download on the App Store